Location: Chiroubles
(46.1812°N, 4.6660°E)
Time: 18:38:28
(UTC+00:00)

Cosmos 1470 Rocket - Pass Details

Date: 15 August 2020
Orbit: 603 x 634 km, 82.5° (Epoch: 23 September)

Event Time Altitude Azimuth Distance (km) Brightness Sun altitude
Exits shadow 20:00:37 - 178° (S) 2,696 6.5 -11.7°
Reaches altitude 10° 20:02:23 10° 175° (S) 1,983 5.8 -11.9°
Maximum altitude 20:06:43 62° 96° (E) 696 3.5 -12.6°
Drops below altitude 10° 20:11:03 10° 15° (NNE) 1,981 6.4 -13.2°
Sets 20:13:17 0° 13° (NNE) 2,886 7.3 -13.5°
